Orbital Elements at Epoch 2459000.5 (2020-May-31.0) TDB
Reference: JPL 12 (heliocentric ecliptic J2000)
Element | Value | Uncertainty (1-sigma) | Units |
e | .08640420812480253 | 6.7032e-08 | |
a | 2.548407886375714 | 2.6843e-08 | au |
q | 2.328214720974419 | 1.7412e-07 | au |
i | 14.11847931290946 | 6.8017e-06 | deg |
node | .5405689673493772 | 2.4623e-05 | deg |
peri | 100.4639554827887 | 4.3491e-05 | deg |
M | 217.3875460225955 | 3.7232e-05 | deg |
tp | 2459589.149513844844 (2022-Jan-09.64951384) | 0.00015599 | TDB |
period | 1485.941929151008 4.07 | 2.3478e-05 6.428e-08 | d yr |
n | .2422705712367143 | 3.8279e-09 | deg/d |
Q | 2.768601051777009 | 2.9163e-08 | au |
|
| | Orbit Determination Parameters
Additional Information
|